Location: Barnston
(51.8500°N, 0.4000°E)
Time: 19:36:30
(UTC+00:00)

Cosmos 2219 Rocket - Pass Details

Date: 26 September 2023
Orbit: 826 x 848 km, 71.0° (Epoch: 08 December)

Event Time Altitude Azimuth Distance (km) Brightness Sun altitude
Rises 04:59:45 0° 325° (NW) 3,395 5.1 -8.6°
Reaches altitude 10° 05:02:19 10° 318° (NW) 2,460 4.3 -8.2°
Maximum altitude 05:07:31 40° 251° (WSW) 1,233 2.6 -7.4°
Drops below altitude 10° 05:12:43 10° 184° (S) 2,458 4.5 -6.6°
Sets 05:15:17 0° 177° (S) 3,391 5.3 -6.2°
